San Jose, Costa Rica

10:29 AM CST on September 27, 2016 (GMT -0600)
Juan Santamaria International

Weather History for MROC - June, 2013

Change the Weather History Date:

Tuesday, June 25, 2013

  Actual Average Record
Temperature  
Mean Temperature 72 °F -  
Max Temperature 78 °F 81 °F 89 °F (2003)
Min Temperature 66 °F 65 °F 62 °F (2000)
Cooling Degree Days 7    
Growing Degree Days 22 (Base 50)    
Moisture  
Dew Point 64 °F    
Average Humidity 75    
Maximum Humidity 94    
Minimum Humidity 61    
Precipitation  
Precipitation 0.28 in - - ()
Sea Level Pressure  
Sea Level Pressure 30.00 in    
Wind  
Wind Speed 6 mph ()    
Max Wind Speed 15 mph    
Max Gust Speed 26 mph    
Visibility 7.0 miles    
Events Rain , Thunderstorm    
Averages and records for this station are not official NWS values.
T = Trace of Precipitation, MM = Missing Value Source: Averaged Metar Reports

Daily Weather History Graph

Daily Weather History Graph

Search for Another Location

Airport or City:

Trip Planner

Search our weather history database for the weather conditions in past years. The results will help you decide how hot, cold, wet, or windy it might be!

Date:

Astronomy

Jun. 25, 2013 Rise Set
Actual Time 5:18 AM CST 6:00 PM CST
Civil Twilight 4:55 AM CST 6:23 PM CST
Nautical Twilight 4:28 AM CST 6:50 PM CST
Astronomical Twilight 4:00 AM CST 7:18 PM CST
Moon 8:19 PM CST (6/25) 7:29 AM CST (6/25)
Length of Visible Light 13h 28m
Length of Day
12h 42m
Waning Gibbous, 92% of the Moon is Illuminated
Jun 25
Waning Gibbous
Jun 29
Last Quarter
Jul 8
New
Jul 15
First Quarter
Jul 22
Full

Hourly Weather History & Observations

Time (CST) Temp. Dew Point Humidity Pressure Visibility Wind Dir Wind Speed Gust Speed Precip Events Conditions
12:00 AM 68 °F 66 °F 90% 29.85 in 12 mi Calm Calm - -   Clear
12:00 AM 68.0 °F 66.2 °F 94% 30.04 in - Calm Calm - N/A   Clear
1:00 AM 69.8 °F 60.8 °F 73% 30.01 in - NE 4.6 mph - N/A   Clear
2:00 AM 71.6 °F 60.8 °F 69% 30.00 in - ESE 9.2 mph - N/A   Clear
3:00 AM 69.8 °F 62.6 °F 78% 30.00 in - ENE 4.6 mph - N/A   Clear
4:00 AM 68.0 °F 62.6 °F 83% 30.02 in - North 3.5 mph - N/A   Clear
5:00 AM 66.2 °F 62.6 °F 88% 30.02 in - North 3.5 mph - N/A   Clear
6:00 AM 68.0 °F 62.6 °F 83% 30.04 in 6.2 mi NNE 2.3 mph - N/A   Scattered Clouds
7:00 AM 75.2 °F 64.4 °F 69% 30.05 in 6.2 mi Calm Calm - N/A   Scattered Clouds
8:00 AM 77.0 °F 66.2 °F 69% 30.05 in 6.2 mi WSW 5.8 mph - N/A   Scattered Clouds
9:00 AM 76 °F 66 °F 64% 29.88 in 12 mi WSW 9.2 mph - -   Partly Cloudy
9:00 AM 77.0 °F 66.2 °F 69% 30.07 in 6.2 mi WSW 9.2 mph - N/A   Scattered Clouds
10:00 AM 75.2 °F 66.2 °F 73% 30.07 in 6.2 mi WSW 9.2 mph - N/A   Scattered Clouds
11:00 AM 77.0 °F 66.2 °F 69% 30.07 in 6.2 mi WSW 5.8 mph - N/A   Mostly Cloudy
12:00 PM 78 °F 69 °F 67% 29.86 in 9 mi SW 6.9 mph - -   Partly Cloudy
12:00 PM 78.8 °F 69.8 °F 74% 30.05 in 6.2 mi SW 6.9 mph - N/A   Mostly Cloudy
1:00 PM 73.4 °F 68.0 °F 83% - 6.2 mi WSW 9.2 mph - N/A   Mostly Cloudy
1:20 PM 73.4 °F 68.0 °F 83% 30.04 in 3.1 mi West 8.1 mph - N/A Rain , Thunderstorm Thunderstorms and Rain
1:30 PM 71.6 °F 68.0 °F 88% 30.05 in 1.2 mi SSW 3.5 mph - N/A Rain , Thunderstorm Thunderstorms and Rain
1:45 PM 73.4 °F 68.0 °F 83% 30.04 in 3.1 mi SSW 5.8 mph - N/A Rain , Thunderstorm Light Thunderstorms and Rain
2:00 PM 71.6 °F 69.8 °F 94% 30.03 in 3.1 mi West 8.1 mph - N/A Rain , Thunderstorm Light Thunderstorms and Rain
3:00 PM 71 °F 65 °F 74% 29.87 in 12 mi South 11.5 mph - -   Overcast
3:00 PM 71.6 °F 64.4 °F 78% 30.04 in 6.2 mi South 11.5 mph - N/A   Mostly Cloudy
4:00 PM 73.4 °F 64.4 °F 73% 30.02 in 6.2 mi East 6.9 mph - N/A   Mostly Cloudy
5:00 PM 71.6 °F 60.8 °F 69% 30.00 in 6.2 mi ESE 15.0 mph 26.5 mph N/A   Mostly Cloudy
6:00 PM 70 °F 60 °F 63% 29.86 in 12 mi ESE 13.8 mph - -   Overcast
6:00 PM 69.8 °F 60.8 °F 73% 29.99 in 6.2 mi ESE 13.8 mph 25.3 mph N/A   Mostly Cloudy
7:00 PM 69.8 °F 60.8 °F 73% 30.01 in - ESE 12.7 mph 24.2 mph N/A   Clear
8:00 PM 69.8 °F 59.0 °F 68% 30.02 in - ESE 13.8 mph 25.3 mph N/A   Clear
9:00 PM 70 °F 59 °F 61% 29.85 in 12 mi ESE 11.5 mph - -   Clear
9:00 PM 69.8 °F 59.0 °F 68% 30.02 in - ESE 11.5 mph - N/A   Clear
10:00 PM 71.6 °F 59.0 °F 64% 30.03 in - ESE 9.2 mph - N/A   Clear
11:00 PM 71.6 °F 59.0 °F 64% 30.01 in - ESE 9.2 mph - N/A   Clear